Regional Weather Roundup
Issued by NWS

Home | Current Version | Previous Version | Text Only | Print | Product List | Glossary Off
Versions: 1 2 3 4 5 6 7 8 9 10 11 12 13 14 15 16 17 18 19 20 21 22 23 24 25 26 27 28 29 30 31 32 33 34 35 36 37 38 39 40 41 42 43 44 45 46 47 48 49 50

000
ASUS43 KOAX 270902
RWRNE

WEATHER ROUNDUP FOR NEBRASKA
NATIONAL WEATHER SERVICE OMAHA NE
400 AM CDT WED AUG 27 2014

NOTES: SATELLITE DATA IS BEING USED TO AUGMENT CLOUD COVER ABOVE
       12000 FEET.
       "FAIR" INDICATES FEW OR NO CLOUDS BELOW 12,000 FEET WITH NO
       SIGNIFICANT WEATHER AND/OR OBSTRUCTIONS TO VISIBILITY.

  * THESE STATIONS DO NOT REPORT WEATHER SUCH AS RAIN...SNOW OR FOG.

NEZ001>004-019>022-054>056-271000-
NEBRASKA PANHANDLE

CITY           SKY/WX    TMP DP  RH WIND       PRES   REMARKS
SCOTTSBLUFF    PTCLDY    63  62  97 E7        30.14S
ALLIANCE       PTCLDY    63  61  93 CALM      30.15F
CHADRON        PTCLDY    61  58  90 CALM      30.15R
KIMBALL        MOCLDY    61  60  97 E3        30.15F
SIDNEY         MOCLDY    65  57  75 S9        30.15F
$$

NEZ057>060-069>072-079>082-271000-
SOUTHWEST NEBRASKA

CITY           SKY/WX    TMP DP  RH WIND       PRES   REMARKS
NORTH PLATTE   LGT RAIN  66  62  87 S3        30.14F
IMPERIAL       CLOUDY    66  62  87 NE6       30.12S
LEXINGTON      TSTM      70  69  96 W6        30.14S
MCCOOK         CLOUDY    67  65  93 N3        30.11F
OGALLALA       CLOUDY    65  64  96 CALM      30.13F
$$

NEZ005>010-023>029-035>040-094-271000-
NORTH CENTRAL NEBRASKA

CITY           SKY/WX    TMP DP  RH WIND       PRES   REMARKS
VALENTINE      CLOUDY    68  66  93 S10       30.12S
AINSWORTH      CLOUDY    66  66  99 SE9       30.13F FOG
BROKEN BOW     CLOUDY    69  68  96 S9        30.14R FOG
O`NEILL        CLOUDY    66  65  97 SE6       30.14F
ORD            CLOUDY    67  65  93 E3        30.11S
THEDFORD       CLOUDY    68  67  97 CALM      30.15S THUNDER VSB 1/2
$$

NEZ041-046>049-061>064-073>077-083>087-271000-
SOUTH CENTRAL NEBRASKA

CITY           SKY/WX    TMP DP  RH WIND       PRES   REMARKS
GRAND ISLAND   CLOUDY    68  66  93 NE5       30.10F
AURORA         CLOUDY    67  67 100 SE5       30.09F
HASTINGS       CLOUDY    69  65  86 SE9       30.09F
HEBRON         CLOUDY    68  65  90 CALM      30.09S
HOLDREGE       TSTM      67  65  94 CALM      30.13F
KEARNEY *      CLOUDY    70  66  88 SW12      30.15R THUNDER
YORK           MOCLDY    66 N/A N/A E6        30.10S
$$

NEZ011>018-030>034-042>045-271000-
NORTHEAST NEBRASKA

CITY           SKY/WX    TMP DP  RH WIND       PRES   REMARKS
NORFOLK        CLOUDY    66  63  90 E5        30.12F
ALBION         CLOUDY    66  63  89 E5        30.12S
BLAIR          PTCLDY    68  65  92 E3        30.12R
FREMONT        PTCLDY    68  65  92 NE3       30.12S
TEKAMAH        CLOUDY    66  64  93 N5        30.12S
WAYNE          CLOUDY    65  63  93 CALM      30.14S
$$

NEZ050>053-065>068-078-088>093-271000-
SOUTHEAST NEBRASKA

CITY           SKY/WX    TMP DP  RH WIND       PRES   REMARKS
LINCOLN        CLOUDY    69  66  90 E6        30.10S
OMAHA EPPLEY   MOCLDY    70  64  81 VRB3      30.12R
BEATRICE       MOCLDY    69  68  98 NE5       30.09S
FALLS CITY     MOCLDY    72  70  93 N7        30.06F
NEBRASKA CITY  TSTM      69  69 100 NE7       30.10S
PLATTSMOUTH    MOCLDY    68  65  91 CALM      30.11F
$$

NEZ044-045-051>053-067-271000-
OMAHA AREA

CITY           SKY/WX    TMP DP  RH WIND       PRES   REMARKS
OMAHA EPPLEY   MOCLDY    70  64  81 VRB3      30.12R
BLAIR          PTCLDY    68  65  92 E3        30.12R
FREMONT        PTCLDY    68  65  92 NE3       30.12S
MILLARD        MOCLDY    70  65  84 CALM      30.11S
OFFUTT AFB     PTCLDY    68  68  99 E5        30.10S
PLATTSMOUTH    MOCLDY    68  65  91 CALM      30.11F
WAHOO          FAIR      66  63  91 N3        30.11S
$$



USA.gov is the U.S. government's official web portal to all federal, state and local government web resources and services.